Theta_e
310 310 312 314 315 313 306 297 293 303 303 294 290 290 294 300 298 297 296 295 294 292 290 288 287 288 287 289 289 285 285 283 280 281 281 283 281 279 279 277 275 272 271 276
308 309 310 312 313 312 300 294 295 303 301 289 288 292 296 297 296 296 295 295 296 294 291 288 289 288 290 290 288 286 286 282 278 278 280 281 279 280 280 278 276 273 272 278
307 308 309 311 312 313 301 295 291 296 295 292 290 290 292 293 296 296 296 294 295 292 290 291 289 288 289 289 289 297 290 282 282 280 281 283 279 281 280 279 272 274 276 279
306 307 307 309 311 311 303 297 292 293 289 291 291 292 292 292 293 294 295 292 295 293 288 288 288 287 285 287 293 286 286 281 281 283 285 284 284 282 279 277 278 279 279 279
306 306 306 308 310 311 304 298 293 294 290 294 291 291 290 293 293 293 291 292 295 293 290 292 290 288 286 286 284 283 283 281 282 281 282 283 282 283 281 280 279 279 279 281
305 305 306 306 308 309 305 305 298 295 292 291 290 290 292 294 295 294 294 294 293 291 293 293 289 288 288 288 285 283 282 282 279 278 281 281 281 281 282 279 280 282 279 283
304 304 305 306 308 308 306 305 302 294 289 291 291 293 294 292 294 292 290 291 293 290 290 290 290 288 286 286 284 285 281 281 278 276 279 277 284 283 284 284 283 282 282 282
303 304 304 306 307 307 302 305 301 299 290 291 293 294 293 289 288 288 289 288 288 290 291 286 284 284 283 283 283 283 284 281 275 277 276 282 283 281 282 282 285 287 285 284
305 305 304 304 305 305 302 304 308 302 296 293 297 295 295 293 287 286 286 287 290 293 289 285 282 282 283 280 279 284 285 282 279 273 275 278 283 284 285 284 282 286 288 283
305 306 304 303 304 304 299 302 308 305 296 297 295 293 292 294 289 286 283 285 287 291 284 283 280 283 285 281 279 278 277 275 276 275 274 281 285 285 285 281 284 285 286 283
305 305 304 303 303 303 299 302 304 304 298 298 297 296 293 291 289 288 287 287 286 284 282 284 285 284 285 282 281 280 280 277 275 275 275 279 285 284 284 288 286 286 285 282
305 305 304 303 302 302 302 300 304 303 300 299 296 295 293 293 292 291 287 288 286 288 284 284 286 285 283 283 282 280 280 284 281 283 284 287 285 287 286 287 287 285 285 284
304 304 304 304 303 302 298 294 298 300 296 298 297 297 297 295 293 294 288 287 291 290 292 290 286 287 285 281 283 282 282 285 284 284 287 288 288 289 285 287 287 286 285 284
303 304 303 302 303 302 298 290 296 298 297 291 291 291 290 291 293 293 294 293 296 295 292 285 285 285 290 287 287 285 286 286 285 286 289 289 290 290 292 288 287 286 285 285
303 303 301 301 302 301 294 291 292 297 296 289 289 294 293 290 290 290 291 293 293 292 288 285 285 287 289 286 285 284 287 287 286 287 291 290 291 289 290 288 288 287 285 283
302 302 300 302 302 299 290 284 298 298 299 291 287 294 292 289 290 291 290 291 293 293 288 285 288 289 290 284 282 291 290 290 291 293 289 290 290 291 289 289 289 287 286 286
302 301 300 301 301 291 285 287 296 300 299 290 286 284 287 286 289 288 288 291 291 292 290 290 289 289 288 277 286 292 292 292 291 290 288 289 290 292 289 288 287 291 285 285
302 300 300 299 299 295 287 290 300 299 294 292 285 286 284 285 282 284 289 287 288 289 289 288 287 285 285 281 287 292 295 297 297 294 291 294 288 287 288 286 286 285 284 283
301 300 299 293 289 284 287 299 301 296 294 284 285 283 281 284 280 281 283 285 282 287 286 286 287 284 282 288 287 290 293 294 296 297 294 289 288 291 289 286 285 285 284 283
300 293 289 281 286 297 299 294 289 289 288 288 284 289 284 282 278 275 281 281 282 281 283 283 280 283 292 293 289 291 294 297 296 290 288 287 286 288 289 287 287 288 287 285
290 286 284 291 297 294 289 283 281 282 282 286 286 287 284 286 282 279 281 283 284 282 281 280 279 278 288 295 295 296 295 295 295 295 297 295 293 294 290 287 287 288 286 285
290 288 290 287 283 284 280 279 280 280 277 282 285 286 287 285 285 283 286 284 284 280 283 281 277 282 288 291 294 296 297 297 298 298 295 295 293 291 290 288 288 288 288 285
288 282 278 274 272 274 272 271 278 280 283 286 287 283 284 283 286 286 284 282 281 285 281 278 279 284 286 286 288 289 292 294 294 295 295 294 293 290 289 289 289 288 286 285
278 274 272 271 271 274 275 275 277 286 288 287 289 284 283 285 285 286 283 281 284 279 278 278 282 284 285 285 286 286 286 288 290 292 292 292 292 291 290 290 288 287 286 285
274 271 267 270 276 276 278 285 282 288 290 289 286 285 285 282 282 284 282 281 278 279 277 280 285 285 285 286 286 285 285 286 286 288 289 290 290 289 289 287 286 287 286 284
273 265 268 273 275 274 278 280 277 285 285 289 287 284 282 281 282 280 279 279 276 279 285 286 286 285 286 287 287 287 286 285 286 287 288 289 289 289 288 285 285 285 285 284
272 267 273 275 276 276 275 280 281 283 281 281 284 280 280 280 281 281 282 281 286 287 288 288 288 287 288 288 289 288 287 286 286 286 287 286 287 286 285 284 283 283 283 283
Wind_Speed
9 9 12 14 14 11 6 1 0 3 2 4 1 4 6 4 4 2 3 3 2 7 7 5 4 6 3 2 6 5 2 5 4 5 1 1 1 2 5 7 4 1 4 11
8 8 10 12 14 9 2 1 3 3 4 4 3 4 5 3 2 3 4 3 3 1 5 3 4 3 1 1 3 5 5 0 2 1 2 2 4 4 5 5 4 7 7 9
6 6 6 10 12 10 4 2 1 5 4 1 6 4 4 4 2 3 3 3 4 3 2 3 4 4 0 2 2 4 3 2 6 8 5 5 4 5 5 6 4 5 9 8
3 6 8 8 11 9 3 3 4 2 3 4 4 5 2 5 5 4 5 1 5 7 5 1 4 2 1 1 1 3 5 4 4 5 6 4 6 6 10 10 7 8 4 9
2 4 7 8 10 6 2 3 2 3 1 1 6 2 4 5 3 6 4 5 7 7 7 9 7 7 5 6 1 4 1 2 2 5 1 6 7 9 12 10 4 11 6 19
1 3 6 8 9 5 2 0 1 4 3 0 5 6 7 7 4 3 2 6 5 5 8 5 1 3 3 7 10 7 5 6 3 6 4 5 9 10 16 7 6 9 9 12
4 2 4 6 6 5 1 2 2 4 3 2 5 3 5 2 3 3 1 2 6 1 6 9 7 9 8 7 5 4 6 5 3 4 3 3 7 3 7 13 5 15 7 6
6 5 2 2 4 5 1 1 3 3 2 3 4 4 2 1 2 1 2 1 2 3 4 6 5 5 4 2 4 2 2 5 3 4 3 10 2 5 9 10 9 21 20 9
6 7 3 0 3 4 1 2 1 3 3 5 1 2 3 4 3 3 1 1 0 4 4 4 6 6 6 4 1 4 5 6 5 3 4 6 6 3 4 3 8 6 16 10
7 9 5 1 3 3 0 3 2 3 3 3 5 4 4 3 2 3 1 3 2 3 3 3 4 5 6 5 7 6 3 3 6 2 3 12 6 5 5 4 11 5 9 9
10 10 7 3 1 4 1 1 2 1 2 4 4 3 4 1 3 4 3 5 3 4 2 5 5 4 8 4 5 8 9 9 5 3 2 11 8 6 9 8 1 4 6 8
12 11 8 4 1 3 1 2 1 2 1 2 0 4 2 3 2 4 1 3 3 5 4 1 2 2 2 5 5 2 4 10 9 13 11 3 10 6 6 4 3 4 6 7
13 12 9 7 3 1 3 1 1 0 1 3 1 6 2 2 6 4 3 3 3 1 1 4 2 4 5 5 7 5 6 5 4 2 6 13 10 10 7 7 6 4 4 8
16 13 11 7 6 3 2 1 1 1 1 2 5 2 3 1 3 4 3 2 2 4 3 2 3 3 3 4 2 4 4 6 5 7 10 7 11 13 14 11 7 6 4 8
17 14 10 6 7 3 3 0 1 2 1 0 4 6 2 2 4 4 2 3 2 2 1 1 4 2 2 1 1 5 6 8 7 8 8 3 7 3 4 10 14 12 10 6
18 14 11 8 7 4 2 2 2 2 2 1 2 4 3 2 3 2 3 2 2 1 4 4 4 2 4 3 6 6 9 8 7 8 2 6 7 7 4 6 10 9 12 8
18 15 11 9 6 2 2 3 2 3 1 1 3 4 2 2 2 2 2 2 0 2 2 4 3 2 4 2 18 11 8 9 8 6 1 8 6 8 3 6 4 9 5 7
20 15 12 9 5 3 2 2 3 4 3 0 2 3 4 4 0 2 1 2 2 1 1 2 2 2 2 7 11 11 18 20 21 15 13 16 2 2 4 3 5 6 8 7
20 15 12 4 2 1 4 4 7 2 1 2 2 2 3 2 1 1 3 1 3 1 4 4 4 3 9 14 8 13 15 14 17 17 11 8 10 13 9 8 8 8 8 8
21 5 3 1 4 6 9 1 2 1 1 2 3 1 3 3 1 2 1 0 3 3 6 2 5 8 19 15 8 7 14 20 13 7 8 7 8 13 12 14 10 12 12 10
3 4 3 2 2 2 2 3 3 2 3 4 3 6 4 2 3 3 3 2 2 4 5 6 4 7 7 13 22 24 21 19 17 17 17 12 10 12 11 10 14 12 10 14
8 6 5 3 3 1 4 5 4 5 7 3 3 4 4 1 1 3 2 3 3 7 2 2 6 6 7 11 12 18 18 24 28 21 19 19 12 9 9 8 11 15 13 10
5 5 5 4 3 4 8 9 5 5 5 4 4 3 3 1 2 2 3 5 6 1 4 6 5 7 12 12 12 12 13 11 11 12 11 12 14 9 11 13 11 10 11 11
4 6 7 7 5 6 6 5 5 4 4 5 3 3 3 2 4 3 4 5 1 4 4 6 3 9 11 11 11 10 13 11 12 12 9 11 12 13 12 13 8 11 13 13
4 5 6 6 3 1 3 3 4 3 4 4 3 2 2 2 3 3 2 3 5 6 4 2 6 10 10 12 14 12 11 12 11 11 9 7 7 8 10 8 7 10 9 13
4 4 4 2 3 2 3 3 3 2 3 3 2 3 3 5 4 5 7 4 6 1 1 4 6 8 11 12 13 13 12 10 10 10 8 7 6 8 7 6 9 10 11 12
4 3 1 3 2 4 3 3 4 4 4 4 3 5 7 2 4 5 5 4 2 1 1 3 8 11 12 12 13 14 13 14 13 9 8 7 6 1 3 6 6 6 7 9
Wind_Direction
345 352 0 4 1 341 63 47 315 306 45 73 44 173 213 234 200 153 166 161 222 186 164 168 218 209 198 44 150 184 200 135 187 215 133 117 189 200 145 117 239 77 144 273
355 346 349 1 5 15 84 192 270 328 89 160 236 264 267 259 176 216 174 180 142 358 191 171 190 176 334 57 133 160 202 287 21 312 16 10 220 195 115 108 90 201 137 262
21 1 356 354 6 11 91 89 276 324 47 60 154 188 245 233 222 235 178 170 117 111 267 355 182 171 104 344 110 91 59 157 177 193 201 132 193 189 172 136 123 186 229 283
46 15 357 344 3 8 103 113 247 220 220 249 186 155 262 196 217 222 166 224 197 160 188 290 220 120 124 17 143 84 119 234 190 251 229 190 214 185 179 193 188 181 245 220
42 5 1 346 356 356 142 160 143 1 256 312 144 170 245 208 211 160 233 181 211 174 169 189 231 151 197 194 73 164 58 240 207 284 353 205 255 222 198 214 224 268 282 281
162 351 353 347 344 333 144 148 138 113 302 293 119 208 204 218 196 222 194 205 138 177 227 141 41 108 73 143 149 172 149 141 107 266 340 320 291 221 188 188 205 172 199 230
251 275 329 332 348 11 298 153 131 116 255 178 217 211 187 202 248 244 170 142 153 151 115 108 68 59 67 68 54 118 140 116 106 236 348 283 242 160 181 206 213 214 257 203
237 228 273 0 21 14 340 271 148 147 226 195 299 243 215 102 43 20 288 27 353 154 58 67 61 353 12 38 32 62 94 118 94 135 205 292 237 200 163 172 270 205 220 196
229 205 211 60 38 6 112 256 185 121 127 229 219 258 213 220 204 327 264 342 95 63 90 93 155 198 215 255 214 97 72 72 119 105 151 238 244 186 190 192 293 200 194 172
230 188 186 163 45 358 121 284 307 124 170 247 144 195 194 119 96 140 318 181 106 30 85 109 161 217 161 195 189 173 102 23 170 181 226 285 233 157 144 110 236 153 172 156
203 195 191 188 79 8 185 290 310 191 158 265 194 207 177 17 125 161 195 59 329 33 120 142 214 182 212 151 165 183 166 148 192 92 90 271 148 84 170 222 284 160 161 175
196 197 196 196 192 6 188 228 351 311 158 284 50 265 238 163 166 153 103 255 191 193 98 241 106 199 146 172 223 45 232 186 181 184 212 248 217 206 213 172 201 209 176 182
190 192 193 195 204 30 106 179 299 10 74 284 281 239 185 151 199 152 137 278 238 264 189 159 174 222 131 172 232 194 238 166 215 94 253 234 235 252 246 208 212 188 198 167
190 187 179 178 200 225 151 122 319 73 74 243 273 38 266 184 162 178 189 205 67 95 70 144 149 168 170 227 240 196 191 133 191 262 283 277 247 228 235 214 208 204 166 177
184 182 178 190 193 180 105 225 265 335 330 221 289 297 231 146 147 211 230 206 159 156 83 124 235 182 137 204 14 239 184 192 180 223 231 208 262 306 206 193 211 198 170 176
179 176 176 177 183 135 84 36 10 175 153 74 307 292 354 61 108 144 212 215 229 206 169 209 246 244 137 194 242 234 197 207 209 248 242 228 287 289 195 226 226 191 186 180
171 168 169 169 150 95 167 178 121 102 113 123 293 304 326 339 77 89 114 109 177 193 225 241 212 194 138 162 250 239 263 244 249 238 15 292 217 250 226 212 203 184 176 178
164 162 166 166 134 39 327 277 195 141 113 27 243 272 355 8 306 161 24 104 72 285 303 290 216 55 135 252 243 231 242 253 262 251 211 239 232 230 231 166 142 177 196 178
154 147 119 78 68 188 235 215 116 80 128 189 204 213 243 5 325 56 11 66 152 179 224 236 146 184 220 231 186 207 223 226 242 245 241 220 215 242 205 193 208 211 207 191
138 101 152 184 215 191 137 96 109 126 325 208 227 240 254 127 65 325 79 36 217 218 228 122 199 244 244 232 225 253 239 236 238 235 245 224 238 227 222 210 209 210 208 193
131 152 156 141 294 84 211 146 153 188 223 205 206 197 194 226 127 203 203 186 233 248 242 171 244 263 253 235 235 237 237 240 236 233 247 241 218 235 220 214 210 210 194 199
162 127 97 82 75 150 174 173 159 207 221 199 176 179 182 194 140 116 182 233 197 246 134 217 256 260 341 342 288 278 267 255 254 247 247 250 246 222 211 203 201 209 206 175
80 65 83 106 264 174 180 182 203 194 183 178 170 151 138 160 220 191 174 221 234 113 212 230 243 329 343 332 320 329 321 304 280 265 242 238 237 202 199 218 211 186 188 182
111 146 154 180 191 223 196 173 165 152 132 145 135 114 167 203 169 204 225 237 232 253 246 237 311 325 326 324 319 324 321 323 317 296 272 245 232 226 220 225 191 175 190 183
134 118 200 198 218 210 207 188 94 143 141 121 110 120 179 171 232 207 211 231 246 212 239 305 307 317 322 330 332 327 322 316 313 305 297 282 260 234 234 211 182 184 172 176
104 61 93 207 127 219 199 152 142 179 107 100 118 157 185 223 216 197 213 215 223 242 329 303 309 321 331 327 324 322 320 309 300 303 299 298 269 250 237 179 188 187 179 179
144 252 203 142 145 170 189 148 151 135 109 173 174 189 211 278 231 218 197 214 138 111 313 324 347 330 322 327 330 329 331 332 325 323 325 320 324 299 155 204 210 169 162 168